• In Italy
  • List of Countries
  • For 7 days
  • Water Temperature
  • Satellite Maps
  • Weather Map
  • Weather Widgets
  • user-avatar
    Login

    Hourly Weather Uige

    Today, 28 July, Friday

    Time Temperature Precipitation Wind Pressure Humidity
    00:00 +21°C° 0 mm 2 mps 692 mmHg 73%
    01:00 +21°C° 0 mm 1 mps 692 mmHg 78%
    02:00 +21°C° 0 mm 1 mps 692 mmHg 82%
    03:00 +20°C° 0 mm 1 mps 692 mmHg 86%
    04:00 +19°C° 0 mm 1 mps 692 mmHg 89%
    05:00 +20°C° 0 mm 1 mps 692 mmHg 88%
    06:00 +20°C° 0 mm 1 mps 692 mmHg 86%
    07:00 +20°C° 0 mm 1 mps 692 mmHg 85%
    08:00 +24°C° 0 mm 1 mps 693 mmHg 67%
    09:00 +28°C° 0 mm 1 mps 694 mmHg 50%
    10:00 +32°C° 0 mm 2 mps 694 mmHg 33%
    11:00 +34°C° 0 mm 1 mps 694 mmHg 28%
    12:00 +37°C° 0 mm 1 mps 694 mmHg 22%
    13:00 +40°C° 0 mm 1 mps 693 mmHg 17%
    14:00 +40°C° 0 mm 1 mps 693 mmHg 16%
    15:00 +39°C° 0 mm 1 mps 692 mmHg 16%
    16:00 +39°C° 0 mm 1 mps 691 mmHg 16%
    17:00 +35°C° 0 mm 1 mps 691 mmHg 20%
    18:00 +32°C° 0 mm 2 mps 691 mmHg 25%
    19:00 +29°C° 0 mm 2 mps 691 mmHg 29%
    20:00 +28°C° 0 mm 2 mps 692 mmHg 36%
    21:00 +26°C° 0 mm 2 mps 692 mmHg 44%
    22:00 +25°C° 0 mm 2 mps 692 mmHg 51%
    23:00 +23°C° 0 mm 2 mps 692 mmHg 58%

    Tomorrow, 29 July, Saturday

    Time Temperature Precipitation Wind Pressure Humidity
    00:00 +21°C° 0 mm 2 mps 692 mmHg 66%
    01:00 +21°C° 0 mm 1 mps 692 mmHg 73%
    02:00 +20°C° 0 mm 1 mps 692 mmHg 77%
    03:00 +20°C° 0 mm 1 mps 691 mmHg 81%
    04:00 +19°C° 0 mm 1 mps 691 mmHg 86%
    05:00 +19°C° 0 mm 1 mps 691 mmHg 83%
    06:00 +19°C° 0 mm 1 mps 692 mmHg 81%
    07:00 +20°C° 0 mm 1 mps 692 mmHg 78%
    08:00 +24°C° 0 mm 1 mps 693 mmHg 62%
    09:00 +28°C° 0 mm 1 mps 694 mmHg 45%
    10:00 +32°C° 0 mm 1 mps 695 mmHg 29%
    11:00 +35°C° 0 mm 1 mps 695 mmHg 24%
    12:00 +37°C° 0 mm 1 mps 694 mmHg 19%
    13:00 +41°C° 0 mm 1 mps 693 mmHg 15%
    14:00 +40°C° 0 mm 1 mps 693 mmHg 15%
    15:00 +39°C° 0 mm 1 mps 692 mmHg 15%
    16:00 +39°C° 0 mm 1 mps 691 mmHg 15%
    17:00 +36°C° 0 mm 2 mps 691 mmHg 19%
    18:00 +32°C° 0 mm 2 mps 691 mmHg 24%
    19:00 +29°C° 0 mm 2 mps 691 mmHg 28%
    20:00 +28°C° 0 mm 2 mps 692 mmHg 37%
    21:00 +26°C° 0 mm 2 mps 692 mmHg 46%
    22:00 +24°C° 0 mm 2 mps 693 mmHg 55%
    23:00 +23°C° 0 mm 1 mps 693 mmHg 62%

    Day after tomorrow, 30 July, Sunday

    Time Temperature Precipitation Wind Pressure Humidity
    00:00 +22°C° 0 mm 1 mps 692 mmHg 68%
    01:00 +21°C° 0 mm 1 mps 692 mmHg 75%
    02:00 +20°C° 0 mm 1 mps 692 mmHg 78%
    03:00 +19°C° 0 mm 1 mps 691 mmHg 82%
    04:00 +19°C° 0 mm 1 mps 691 mmHg 85%
    05:00 +19°C° 0 mm 1 mps 692 mmHg 83%
    06:00 +19°C° 0 mm 1 mps 692 mmHg 81%
    07:00 +18°C° 0 mm 0 mps 692 mmHg 79%
    08:00 +24°C° 0 mm 1 mps 693 mmHg 62%
    09:00 +28°C° 0 mm 1 mps 694 mmHg 45%
    10:00 +32°C° 0 mm 2 mps 695 mmHg 29%
    11:00 +35°C° 0 mm 1 mps 694 mmHg 24%
    12:00 +37°C° 0 mm 1 mps 693 mmHg 19%
    13:00 +40°C° 0 mm 1 mps 693 mmHg 14%
    14:00 +40°C° 0 mm 1 mps 692 mmHg 14%
    15:00 +39°C° 0 mm 2 mps 691 mmHg 14%
    16:00 +38°C° 0 mm 2 mps 690 mmHg 14%
    17:00 +35°C° 0 mm 2 mps 691 mmHg 20%
    18:00 +32°C° 0 mm 2 mps 691 mmHg 26%
    19:00 +29°C° 0 mm 2 mps 691 mmHg 32%
    20:00 +27°C° 0 mm 2 mps 692 mmHg 42%
    21:00 +25°C° 0 mm 2 mps 692 mmHg 52%
    22:00 +24°C° 0 mm 2 mps 693 mmHg 62%
    23:00 +23°C° 0 mm 2 mps 692 mmHg 68%

    31 July, Monday

    Time Temperature Precipitation Wind Pressure Humidity
    00:00 +20°C° 0 mm 2 mps 692 mmHg 74%
    01:00 +19°C° 0 mm 2 mps 691 mmHg 80%
    02:00 +20°C° 0 mm 1 mps 691 mmHg 83%
    03:00 +19°C° 0 mm 1 mps 691 mmHg 87%
    04:00 +18°C° 0 mm 1 mps 691 mmHg 91%
    05:00 +18°C° 0 mm 1 mps 691 mmHg 89%
    06:00 +19°C° 0 mm 1 mps 692 mmHg 88%
    07:00 +19°C° 0 mm 1 mps 693 mmHg 86%
    08:00 +22°C° 0 mm 1 mps 693 mmHg 70%
    09:00 +26°C° 0 mm 1 mps 694 mmHg 54%
    10:00 +30°C° 0 mm 2 mps 694 mmHg 37%
    11:00 +32°C° 0 mm 1 mps 694 mmHg 31%
    12:00 +35°C° 0 mm 1 mps 693 mmHg 25%
    13:00 +37°C° 0 mm 1 mps 693 mmHg 20%
    14:00 +38°C° 0 mm 2 mps 692 mmHg 19%
    15:00 +37°C° 0 mm 2 mps 692 mmHg 19%
    16:00 +37°C° 0 mm 2 mps 691 mmHg 19%
    17:00 +34°C° 0 mm 2 mps 691 mmHg 25%
    18:00 +31°C° 0 mm 2 mps 692 mmHg 31%
    19:00 +28°C° 0 mm 3 mps 692 mmHg 37%
    20:00 +26°C° 0 mm 2 mps 692 mmHg 47%
    21:00 +24°C° 0 mm 2 mps 693 mmHg 58%
    22:00 +21°C° 0 mm 2 mps 693 mmHg 69%
    23:00 +20°C° 0 mm 2 mps 693 mmHg 74%

    1 August, Tuesday

    Time Temperature Precipitation Wind Pressure Humidity
    00:00 +20°C° 0 mm 2 mps 693 mmHg 79%
    01:00 +19°C° 0 mm 2 mps 692 mmHg 84%
    02:00 +18°C° 0 mm 2 mps 692 mmHg 84%
    03:00 +18°C° 0 mm 2 mps 692 mmHg 83%
    04:00 +18°C° 0 mm 2 mps 692 mmHg 83%
    05:00 +18°C° 0 mm 2 mps 692 mmHg 82%
    06:00 +19°C° 0 mm 1 mps 693 mmHg 82%
    07:00 +19°C° 0 mm 1 mps 693 mmHg 81%
    08:00 +22°C° 0 mm 1 mps 694 mmHg 67%
    09:00 +26°C° 0 mm 1 mps 694 mmHg 54%
    10:00 +29°C° 0 mm 1 mps 695 mmHg 40%
    11:00 +31°C° 0 mm 1 mps 694 mmHg 34%
    12:00 +34°C° 0 mm 1 mps 694 mmHg 29%
    13:00 +36°C° 0 mm 1 mps 693 mmHg 23%
    14:00 +36°C° 0 mm 1 mps 693 mmHg 23%
    15:00 +35°C° 0 mm 1 mps 692 mmHg 23%
    16:00 +35°C° 0 mm 1 mps 692 mmHg 22%
    17:00 +34°C° 0 mm 2 mps 692 mmHg 27%
    18:00 +31°C° 0 mm 2 mps 692 mmHg 31%
    19:00 +28°C° 0 mm 2 mps 692 mmHg 36%
    20:00 +27°C° 0 mm 2 mps 693 mmHg 43%
    21:00 +25°C° 0 mm 2 mps 693 mmHg 50%
    22:00 +23°C° 0 mm 2 mps 693 mmHg 57%
    23:00 +23°C° 0 mm 2 mps 693 mmHg 62%

    2 August, Wednesday

    Time Temperature Precipitation Wind Pressure Humidity
    00:00 +21°C° 0 mm 2 mps 693 mmHg 68%
    01:00 +20°C° 0 mm 2 mps 693 mmHg 74%
    02:00 +19°C° 0 mm 2 mps 692 mmHg 78%
    03:00 +19°C° 0 mm 1 mps 692 mmHg 82%
    04:00 +18°C° 0 mm 1 mps 692 mmHg 86%
    05:00 +18°C° 0 mm 1 mps 692 mmHg 86%
    06:00 +19°C° 0 mm 1 mps 693 mmHg 85%
    07:00 +19°C° 0 mm 1 mps 693 mmHg 84%
    08:00 +22°C° 0 mm 1 mps 694 mmHg 69%
    09:00 +26°C° 0 mm 1 mps 694 mmHg 53%
    10:00 +30°C° 0 mm 1 mps 695 mmHg 38%
    11:00 +32°C° 0 mm 1 mps 694 mmHg 33%
    12:00 +34°C° 0 mm 1 mps 694 mmHg 29%
    13:00 +36°C° 0 mm 1 mps 693 mmHg 24%
    14:00 +35°C° 0 mm 1 mps 693 mmHg 26%
    15:00 +34°C° 0 mm 1 mps 692 mmHg 27%
    16:00 +34°C° 0 mm 2 mps 691 mmHg 29%
    17:00 +32°C° 0 mm 2 mps 692 mmHg 31%
    18:00 +30°C° 0 mm 2 mps 692 mmHg 34%
    19:00 +29°C° 0 mm 2 mps 692 mmHg 37%
    20:00 +27°C° 0 mm 2 mps 693 mmHg 42%
    21:00 +26°C° 0 mm 2 mps 693 mmHg 48%
    22:00 +24°C° 0 mm 2 mps 693 mmHg 54%
    23:00 +23°C° 0 mm 2 mps 693 mmHg 60%
    Show more